sat.trackr.live / text

‹ back to catalog

STARLINK-3246

NORAD 49732 · 2021-115J

PAYLOAD ACTIVE UNKNOWN

§ Identity

Operator
Country
US
Launch date
2021-12-02
Launch site
AFETR
Launch vehicle
Mass (kg)
RCS (m²)

Purposes: comms

External: N2YO · Heavens-Above · Gunter

§ Orbital elements

Epoch: 2026-05-24T18:43:45.792768Z

Period
95.44 min
Inclination
53.2121°
Eccentricity
0.0001307
Mean motion
15.08835531 rev/d
Perigee alt
538.9 km
Apogee alt
540.7 km
Semi-major
6,917.9 km
B*
3.6866e-6
RAAN
177.6916°
Arg perigee
87.7070°
Mean anomaly
272.4071°
Rev number
24,687

§ Raw data

STARLINK-32461 49732U 21115J   26144.78039112 -.00000229  00000+0  36866-5 0  99902 49732  53.2121 177.6916 0001307  87.7070 272.4071 15.08835531246877

JSON: /api/v1/satellites/49732 · /tle

For live sub-satellite position, see the globe view (requires WebGL).

§ Visibility from observer

Set your observer location to see the next 7 days of passes ≥ 10°. The values pass through the URL so the page stays shareable.

No JS? Fill the form by hand. The geolocation button needs JavaScript.